Home > Weather > Yarmouth County > Past weeks

Flag for Canada Weather for the Past 2 Weeks in Yarmouth County, Nova Scotia, Canada

Now
30 °F

Overcast.


Feels Like: 24 °F
Forecast: 24 / 31 °F
Wind: 6 mph from Northwest

Location: Yarmouth

Current Time: Feb 10, 2016 at 7:01:20 AM

Latest Report: Feb 10, 2016 at 6:00 AM


Visibility: 9 mi

Pressure: 29.55 "Hg

Humidity: 80%

Dew point: 25 °F

Location of Yarmouth CountyLocation

Historic Weather in Yarmouth County — Graph

°F

Yarmouth County Temperature Yesterday

Maximum temperature yesterday: 30 °F (at 11:00 AM)
Minimum temperature yesterday: 23 °F (at 12:00 AM)
Average temperature yesterday: 27 °F

High & Low Weather Summary for the Past Weeks

 TemperatureHumidityPressure
High50 °F (Feb 4, 9:00 AM)100% (Jan 26, 6:00 AM)30.53 "Hg (Jan 26, 6:00 AM)
Low21 °F (Feb 3, 4:00 AM)49% (Feb 8, 5:00 AM)29.18 "Hg (Jan 29, 5:00 PM)
Average35 °F84%29.90 "Hg
* Reported Jan 26 5:00 AM — Feb 10 5:49 AM, Yarmouth County, Weather by CustomWeather, © 2016

Note: Actual official high and low records may vary slightly from our data, if they occured in-between our weather recording intervals... More about our weather records

Advertising

Yarmouth County Weather History for the Previous 24 Hours

 ConditionsComfort  
Time TempWeatherWind HumidityBarometerVisibility
5:49 AM
Wed, Feb 10
30 °FOvercast.9 mph86%29.55 "Hg9 mi
5:00 AM28 °FSnow flurries. Mostly cloudy.5 mph93%29.54 "Hg5 mi
4:00 AM27 °FSnow flurries. Overcast.2 mph100%29.56 "Hg5 mi
3:45 AM27 °FSnow flurries. Mostly cloudy.2 mph100%29.56 "Hg3 mi
3:00 AM27 °FSnow flurries. Mostly cloudy.2 mph93%29.55 "Hg1 mi
2:53 AM27 °FSnow flurries. Overcast.No wind93%29.55 "Hg2 mi
2:00 AM27 °FOvercast.5 mph86%29.53 "Hg15 mi
1:00 AM27 °FOvercast.3 mph86%29.52 "Hg15 mi
12:00 AM27 °FOvercast.3 mph86%29.51 "Hg15 mi
11:00 PM
Tue, Feb 9
27 °FOvercast.5 mph80%29.48 "Hg15 mi
10:00 PM27 °FOvercast.7 mph86%29.49 "Hg15 mi
9:00 PM27 °FOvercast.7 mph86%29.51 "Hg15 mi
8:00 PM28 °FPassing clouds.8 mph80%29.52 "Hg15 mi
7:00 PM28 °FOvercast.9 mph86%29.51 "Hg14 mi
6:00 PM30 °FOvercast.9 mph86%29.50 "Hg15 mi
5:00 PM30 °FPartly sunny.7 mph80%29.50 "Hg15 mi
4:00 PM30 °FPartly sunny.7 mph75%29.52 "Hg15 mi
3:00 PM30 °FBroken clouds.5 mph75%29.56 "Hg15 mi
2:00 PM30 °FPartly sunny.5 mph75%29.58 "Hg15 mi
1:00 PM30 °FPartly sunny.3 mph69%29.58 "Hg15 mi
12:00 PM30 °FPartly sunny.5 mph75%29.60 "Hg15 mi
11:00 AM30 °FPartly sunny.2 mph69%29.64 "Hg15 mi
10:00 AM27 °FScattered clouds.10 mph80%29.61 "Hg15 mi
9:00 AM27 °FPartly sunny.8 mph86%29.61 "Hg15 mi
8:00 AM25 °FMostly cloudy.5 mph93%29.62 "Hg10 mi
7:00 AM25 °FLight snow. Overcast.8 mph100%29.59 "Hg2 mi
Weather by CustomWeather, © 2016

See weather overviewHow to use our weather pages